Weather History for Baudette, MN

Change the Weather History Date:

Tuesday, January 7, 2014

  Actual Average Record
Temperature  
Mean Temperature -17 °F -  
Max Temperature -8 °F 9 °F 46 °F (2003)
Min Temperature -26 °F -13 °F -41 °F (1973)
Degree Days  
Heating Degree Days 82    
Moisture  
Dew Point -21 °F    
Average Humidity 76    
Maximum Humidity 83    
Minimum Humidity 68    
Precipitation  
Precipitation 0.00 in - - ()
Sea Level Pressure  
Sea Level Pressure 30.14 in    
Wind  
Wind Speed 4 mph (WNW)    
Max Wind Speed 9 mph    
Max Gust Speed -    
Visibility 10 miles    
Events      
Averages and records for this station are not official NWS values.
T = Trace of Precipitation, MM = Missing Value Source: NWS Daily Summary

Daily Weather History Graph

Daily Weather History Graph

Search for Another Location

Airport:

Trip Planner

Search our weather history database for the weather conditions in past years. The results will help you decide how hot, cold, wet, or windy it might be!

Date:

Astronomy

Jan. 07, 2014 Rise Set
Actual Time 8:10 AM CST 4:39 PM CST
Civil Twilight 7:33 AM CST 5:16 PM CST
Nautical Twilight 6:53 AM CST 5:55 PM CST
Astronomical Twilight 6:15 AM CST 6:34 PM CST
Moon 11:21 AM CST (1/7) No Moon Set
Length of Visible Light 9h 42m
Length of Day
8h 29m
Waxing Crescent, 46% of the Moon is Illuminated
Jan 7
Waxing Crescent
Jan 7
First Quarter
Jan 15
Full
Jan 23
Last Quarter
Jan 30
New

Hourly Weather History & Observations

Time (CST) Temp. Windchill Dew Point Humidity Pressure Visibility Wind Dir Wind Speed Gust Speed Precip Events Conditions
12:53 AM -26.0 °F -40.2 °F -31.0 °F 77% 30.10 in 10.0 mi SW 4.6 mph - N/A   Mostly Cloudy
1:51 AM -23.8 °F - -27.4 °F 83% 29.95 in 10.0 mi Calm Calm - N/A   Partly Cloudy
1:53 AM -23.1 °F - -27.9 °F 78% 30.09 in 10.0 mi Calm Calm - N/A   Partly Cloudy
2:38 AM -23.1 °F -36.8 °F -27.9 °F 78% 29.95 in 10.0 mi SW 4.6 mph - N/A   Mostly Cloudy
2:53 AM -23.1 °F -36.8 °F -27.9 °F 78% 30.09 in 10.0 mi SW 4.6 mph - N/A   Overcast
3:53 AM -20.9 °F - -26.0 °F 77% 30.09 in 10.0 mi Calm Calm - N/A   Overcast
4:53 AM -16.1 °F -30.6 °F -20.9 °F 79% 30.09 in 10.0 mi WNW 5.8 mph - N/A   Overcast
5:53 AM -16.1 °F -32.3 °F -20.9 °F 79% 30.09 in 9.0 mi WNW 6.9 mph - N/A   Overcast
6:53 AM -16.1 °F -33.7 °F -22.0 °F 74% 30.11 in 10.0 mi WNW 8.1 mph - N/A   Overcast
7:23 AM -17.0 °F -27.2 °F -22.0 °F 78% 29.98 in 10.0 mi WNW 3.5 mph - N/A   Scattered Clouds
7:33 AM -17.0 °F -29.7 °F -22.0 °F 78% 29.98 in 10.0 mi WNW 4.6 mph - N/A   Mostly Cloudy
7:41 AM -18.0 °F -33.0 °F -23.1 °F 78% 29.99 in 10.0 mi WNW 5.8 mph - N/A   Scattered Clouds
7:53 AM -18.0 °F -30.9 °F -23.1 °F 78% 30.13 in 10.0 mi Variable 4.6 mph - N/A   Scattered Clouds
8:53 AM -18.0 °F - -23.1 °F 78% 30.14 in 10.0 mi Calm Calm - N/A   Clear
9:53 AM -16.1 °F -28.6 °F -20.9 °F 79% 30.17 in 10.0 mi NW 4.6 mph - N/A   Mostly Cloudy
10:53 AM -13.0 °F -28.6 °F -18.9 °F 75% 30.18 in 10.0 mi WNW 6.9 mph - N/A   Overcast
11:09 AM -13.0 °F -31.3 °F -18.9 °F 75% 30.04 in 10.0 mi NW 9.2 mph - N/A   Overcast
11:53 AM -11.9 °F -27.3 °F -18.0 °F 74% 30.17 in 10.0 mi West 6.9 mph - N/A   Overcast
12:53 PM -9.9 °F -26.3 °F -18.0 °F 68% 30.18 in 10.0 mi NW 8.1 mph - N/A   Overcast
1:05 PM -9.9 °F -27.5 °F -18.0 °F 68% 30.04 in 10.0 mi NW 9.2 mph - N/A   Overcast
1:53 PM -9.0 °F -22.3 °F -17.0 °F 68% 30.19 in 10.0 mi WNW 5.8 mph - N/A   Overcast
2:53 PM -8.0 °F -19.2 °F -16.1 °F 68% 30.20 in 10.0 mi Variable 4.6 mph - N/A   Overcast
3:53 PM -8.0 °F - -15.0 °F 71% 30.22 in 10.0 mi Calm Calm - N/A   Overcast
4:26 PM -9.0 °F -22.3 °F -17.0 °F 68% 30.10 in 10.0 mi WSW 5.8 mph - N/A   Overcast
4:53 PM -9.0 °F -22.3 °F -17.0 °F 68% 30.23 in 10.0 mi West 5.8 mph - N/A   Overcast
5:53 PM -9.9 °F -19.2 °F -16.1 °F 74% 30.24 in 10.0 mi Variable 3.5 mph - N/A   Overcast
6:53 PM -11.0 °F -24.6 °F -17.0 °F 75% 30.25 in 10.0 mi Variable 5.8 mph - N/A   Overcast
7:53 PM -11.9 °F -25.7 °F -17.0 °F 78% 30.27 in 10.0 mi NW 5.8 mph - N/A   Overcast
8:53 PM -11.9 °F -27.3 °F -17.0 °F 78% 30.30 in 10.0 mi WNW 6.9 mph - N/A   Overcast
9:53 PM -14.1 °F - -18.9 °F 79% 30.31 in 10.0 mi Calm Calm - N/A   Overcast
10:32 PM -15.0 °F -25.0 °F -20.0 °F 78% 30.18 in 10.0 mi WNW 3.5 mph - N/A   Partly Cloudy
10:53 PM -16.1 °F -26.2 °F -20.0 °F 82% 30.31 in 10.0 mi Variable 3.5 mph - N/A   Clear
11:15 PM -16.1 °F -28.6 °F -20.0 °F 82% 30.19 in 10.0 mi West 4.6 mph - N/A   Mostly Cloudy
11:53 PM -15.0 °F -25.0 °F -20.0 °F 78% 30.31 in 10.0 mi West 3.5 mph - N/A   Overcast